Location: Newark
(55.7083°N, 13.1992°E)
Time: 23:49:46
(UTC+00:00)

Transit 4A - Pass Details

Date: 19 February 2020
Orbit: 871 x 973 km, 66.8° (Epoch: 28 March)

Event Time Altitude Azimuth Distance (km) Brightness Sun altitude
Exits shadow 03:03:00 35° 336° (NNW) 1,382 8.7 -28.5°
Maximum altitude 03:03:06 35° 338° (NNW) 1,382 8.7 -28.5°
Drops below altitude 10° 03:08:26 10° 44° (NE) 2,532 11.0 -27.8°
Sets 03:11:09 0° 54° (NE) 3,475 12.1 -27.5°
